EA2CW-13 Weather Reports


time (UTC)temp
C
wind
direction
speed
KPH
gust
KPH
rain 1hr
cm
rain 24hr
cm
rain mn
cm
humidity
%
barometer
mb
20260508023144 12 0.0 0.0 0.00 0.00 0.00 89 1046.9
20260508021608 12 0.0 0.0 0.00 0.00 0.00 88 1047.0
20260508020032 12 0.0 0.0 0.00 0.00 0.00 88 1047.0
20260508014456 12 0.0 0.0 0.00 0.00 0.00 88 1046.8
20260508012920 12 0.0 0.0 0.00 0.00 0.00 88 1047.1
20260508011344 13 0.0 0.0 0.00 0.00 0.00 88 1047.2
20260508005808 13 0.0 0.0 0.00 0.00 0.00 87 1047.3
20260508004232 13 0.0 0.0 0.00 0.00 0.00 88 1047.5
20260508002656 13 0.0 0.0 0.00 0.00 0.00 88 1047.3
20260508001120 13 0.0 0.0 0.00 0.00 0.00 88 1047.5
20260507235544 13 0.0 0.0 0.00 0.00 0.00 89 1047.6
20260507234008 13 0.0 0.0 0.00 0.00 0.00 89 1047.6
20260507232432 13 0.0 0.0 0.00 0.00 0.00 88 1047.6
20260507230856 14 0.0 0.0 0.00 0.00 0.00 88 1047.7
20260507225320 14 0.0 0.0 0.00 0.00 0.00 87 1047.7
20260507223744 14 0.0 0.0 0.00 0.00 0.00 87 1047.9
20260507222208 15 0.0 0.0 0.00 0.00 0.00 86 1047.9
20260507220632 15 0.0 0.0 0.00 0.00 0.00 86 1047.9
20260507215056 15 0.0 0.0 0.00 0.00 0.00 85 1047.8
20260507213520 15 0.0 0.0 0.00 0.00 0.00 84 1047.6
20260507211944 15 0.0 0.0 0.00 0.00 0.00 84 1047.6
20260507210408 15 0.0 0.0 0.00 0.00 0.00 82 1047.6
20260507204833 16 0.0 0.0 0.00 0.00 0.00 81 1047.5
20260507203257 16 0.0 0.0 0.00 0.00 0.00 79 1047.3
20260507201721 16 0.0 0.0 0.00 0.00 0.00 77 1047.1
20260507200145 16 0.0 0.0 0.00 0.00 0.00 75 1046.9
20260507194609 17 0.0 0.0 0.00 0.00 0.00 73 1046.7
20260507193033 17 0.0 0.0 0.00 0.00 0.00 70 1046.5
20260507191457 18 0.0 0.0 0.00 0.00 0.00 67 1046.5
20260507185921 18 0.0 0.0 0.00 0.00 0.00 64 1046.4
20260507184345 20 0.0 0.0 0.00 0.00 0.00 62 1046.4
20260507182809 21 0.0 0.0 0.00 0.00 0.00 64 1046.3
20260507181233 20 0.0 0.0 0.00 0.00 0.00 66 1046.1
20260507175657 20 0.0 0.0 0.00 0.00 0.00 66 1046.1
20260507174121 20 0.0 0.0 0.00 0.00 0.00 65 1046.3
20260507172545 20 0.0 0.0 0.00 0.00 0.00 63 1046.3
20260507171009 18 0.0 0.0 0.00 0.00 0.00 61 1046.3
20260507165433 20 0.0 0.0 0.00 0.00 0.00 51 1046.6
20260507163857 19 0.0 0.0 0.00 0.00 0.00 46 1047.0
20260507162321 21 0.0 0.0 0.00 0.00 0.00 41 1046.5
20260507160745 21 0.0 0.0 0.00 0.00 0.00 40 1046.3
20260507155209 22 0.0 0.0 0.00 0.00 0.00 39 1046.0
20260507153633 24 0.0 0.0 0.00 0.00 0.00 38 1045.5
20260507152057 25 0.0 0.0 0.00 0.00 0.00 37 1045.1
20260507150521 28 0.0 0.0 0.00 0.00 0.00 35 1045.0
20260507144945 27 0.0 0.0 0.00 0.00 0.00 39 1045.1
20260507143409 26 0.0 0.0 0.00 0.00 0.00 43 1045.4
20260507141834 24 0.0 0.0 0.00 0.00 0.00 46 1045.5
20260507140258 23 0.0 0.0 0.00 0.00 0.00 48 1045.6
20260507134722 22 0.0 0.0 0.00 0.00 0.00 48 1045.9
20260507133146 24 0.0 0.0 0.00 0.00 0.00 46 1046.0
20260507131610 24 0.0 0.0 0.00 0.00 0.00 47 1046.0
20260507130034 23 0.0 0.0 0.00 0.00 0.00 48 1046.4
20260507124458 21 0.0 0.0 0.00 0.00 0.00 53 1046.7
20260507122922 20 0.0 0.0 0.00 0.00 0.00 55 1047.0
20260507121346 20 0.0 0.0 0.00 0.00 0.00 57 1047.2
20260507115810 19 0.0 0.0 0.00 0.00 0.00 59 1047.6
20260507114234 18 0.0 0.0 0.00 0.00 0.00 60 1047.7
20260507112658 18 0.0 0.0 0.00 0.00 0.00 61 1047.9
20260507111122 18 0.0 0.0 0.00 0.00 0.00 61 1048.0
20260507105546 17 0.0 0.0 0.00 0.00 0.00 62 1048.3
20260507104010 17 0.0 0.0 0.00 0.00 0.00 61 1048.5
20260507102434 17 0.0 0.0 0.00 0.00 0.00 63 1048.8
20260507100858 16 0.0 0.0 0.00 0.00 0.00 64 1049.0
20260507095322 16 0.0 0.0 0.00 0.00 0.00 64 1049.2
20260507093746 16 0.0 0.0 0.00 0.00 0.00 64 1049.5
20260507092210 16 0.0 0.0 0.00 0.00 0.00 64 1049.5
20260507090634 17 0.0 0.0 0.00 0.00 0.00 64 1049.7
20260507085058 17 0.0 0.0 0.00 0.00 0.00 66 1049.7
20260507083522 16 0.0 0.0 0.00 0.00 0.00 70 1049.8
20260507081946 16 0.0 0.0 0.00 0.00 0.00 72 1050.0
20260507080410 15 0.0 0.0 0.00 0.00 0.00 74 1050.2
20260507074834 15 0.0 0.0 0.00 0.00 0.00 76 1050.3
20260507073258 15 0.0 0.0 0.00 0.00 0.00 79 1050.3
20260507071722 13 0.0 0.0 0.00 0.00 0.00 81 1050.5
20260507070146 12 0.0 0.0 0.00 0.00 0.00 82 1050.7
20260507064611 12 0.0 0.0 0.00 0.00 0.00 84 1050.7
20260507063035 12 0.0 0.0 0.00 0.00 0.00 84 1050.5
20260507061459 12 0.0 0.0 0.00 0.00 0.00 84 1050.6
20260507055923 12 0.0 0.0 0.00 0.00 0.00 87 1050.7
20260507054347 11 0.0 0.0 0.00 0.00 0.00 87 1050.7
20260507052811 11 0.0 0.0 0.00 0.00 0.00 87 1050.8
20260507051235 11 0.0 0.0 0.00 0.00 0.00 88 1050.5
20260507045659 11 0.0 0.0 0.00 0.00 0.00 88 1050.6
20260507044123 11 0.0 0.0 0.00 0.00 0.00 88 1050.9
20260507042547 11 0.0 0.0 0.00 0.00 0.00 88 1050.9
20260507041011 11 0.0 0.0 0.00 0.00 0.00 88 1050.7
20260507035435 11 0.0 0.0 0.00 0.00 0.00 88 1050.8
20260507033859 11 0.0 0.0 0.00 0.00 0.00 89 1050.8
20260507032323 12 0.0 0.0 0.00 0.00 0.00 89 1050.9
20260507030747 11 0.0 0.0 0.00 0.00 0.00 89 1050.9
20260507025211 12 0.0 0.0 0.00 0.00 0.00 89 1050.9